GW1187 Weather Reports


Display with metric or nautical units.
time (UTC)temp
F
wind
direction
speed
MPH
gust
MPH
rain 1hr
in
rain 24hr
in
rain mn
in
humidity
%
barometer
mb
20260510041601 46 0 0.0 0.0 0.00 0.58 0.00 96 1011.3
20260510040042 46 0 0.0 0.0 0.00 0.58 0.00 96 1011.1
20260510034545 46 0 0.0 0.0 0.00 0.58 0.58 96 1011.1
20260510033052 46 0 0.0 0.0 0.00 0.58 0.58 96 1011.4
20260510031553 46 0 0.0 0.0 0.00 0.58 0.58 96 1011.6
20260510030046 46 0 0.0 0.0 0.00 0.58 0.58 96 1011.7
20260510024604 46 0 0.0 0.0 0.00 0.58 0.58 96 1011.7
20260510023041 45 0 0.0 0.0 0.00 0.58 0.58 96 1011.9
20260510021547 45 0 0.0 0.0 0.00 0.58 0.58 96 1011.9
20260510020047 45 0 0.0 0.0 0.00 0.58 0.58 96 1011.9
20260510014608 45 0 0.0 0.0 0.00 0.58 0.58 96 1012.1
20260510013059 45 0 0.0 0.0 0.00 0.58 0.58 95 1012.1
20260510011544 45 0 0.0 0.0 0.00 0.58 0.58 95 1011.7
20260510010041 45 0 0.0 0.0 0.00 0.58 0.58 95 1011.6
20260510004547 45 0 0.0 0.0 0.00 0.58 0.58 95 1011.6
20260510003048 45 0 0.0 0.0 0.00 0.58 0.58 95 1011.4
20260510001546 45 0 0.0 0.0 0.00 0.58 0.58 95 1011.4
20260510000046 45 0 0.0 0.0 0.00 0.58 0.58 95 1011.4
20260509234543 45 0 0.0 0.0 0.00 0.58 0.58 95 1011.4
20260509233043 45 0 0.0 0.0 0.00 0.58 0.58 95 1011.3
20260509231546 46 0 0.0 0.0 0.00 0.58 0.58 95 1011.2
20260509230048 45 0 0.0 0.0 0.01 0.58 0.58 95 1011.2
20260509224546 45 0 0.0 0.0 0.02 0.58 0.58 95 1011.2
20260509223051 45 0 0.0 0.0 0.03 0.58 0.58 95 1011.2
20260509221547 45 0 0.0 0.0 0.04 0.58 0.58 95 1011.2
20260509220045 45 0 0.0 1.0 0.05 0.58 0.58 95 1011.2
20260509214542 45 131 0.0 1.0 0.06 0.57 0.57 95 1011.5
20260509213049 45 0 0.0 2.0 0.07 0.56 0.56 95 1011.7
20260509211554 45 127 0.0 1.0 0.09 0.55 0.55 95 1011.8
20260509210054 45 0 0.0 1.0 0.08 0.52 0.52 95 1012.0
20260509204547 45 0 0.0 0.0 0.08 0.51 0.51 95 1012.1
20260509203044 45 0 0.0 0.0 0.08 0.49 0.49 95 1012.1
20260509201542 45 0 0.0 0.0 0.06 0.46 0.46 94 1012.3
20260509200047 45 0 0.0 3.0 0.06 0.45 0.45 94 1012.2
20260509194546 45 0 0.0 2.0 0.05 0.43 0.43 94 1012.0
20260509193047 45 0 0.0 2.0 0.03 0.41 0.41 94 1012.1
20260509191546 45 0 0.0 0.0 0.04 0.40 0.40 94 1012.0
20260509190051 45 0 0.0 2.0 0.05 0.39 0.39 94 1012.3
20260509184546 45 0 0.0 0.0 0.07 0.38 0.38 94 1012.3
20260509183043 45 0 0.0 0.0 0.09 0.38 0.38 94 1012.3
20260509181544 44 0 0.0 1.0 0.09 0.36 0.36 93 1012.5
20260509180045 44 0 0.0 1.0 0.09 0.34 0.34 93 1012.8
20260509174541 44 86 1.0 2.0 0.08 0.31 0.31 92 1013.0
20260509173114 45 0 0.0 2.0 0.09 0.29 0.29 92 1013.0
20260509171548 45 0 0.0 0.0 0.10 0.27 0.27 92 1013.2
20260509170055 45 0 0.0 0.0 0.09 0.25 0.25 93 1013.3
20260509164544 45 0 0.0 0.0 0.09 0.23 0.23 93 1013.3
20260509163042 45 0 0.0 0.0 0.08 0.20 0.20 92 1013.2
20260509161543 45 0 0.0 0.0 0.06 0.17 0.17 91 1013.3
20260509160050 45 0 0.0 0.0 0.05 0.15 0.15 92 1013.5
20260509154547 44 0 0.0 0.0 0.05 0.14 0.14 92 1013.7
20260509153046 44 0 0.0 0.0 0.03 0.12 0.12 92 1013.8
20260509151555 44 69 1.0 2.0 0.03 0.11 0.11 91 1014.1
20260509150046 44 42 1.0 3.0 0.03 0.10 0.10 91 1014.0
20260509144540 44 53 0.0 2.0 0.03 0.09 0.09 93 1014.1
20260509143054 44 0 0.0 2.0 0.04 0.09 0.09 93 1014.0
20260509141549 43 0 0.0 0.0 0.03 0.08 0.08 93 1014.1
20260509140046 42 0 0.0 0.0 0.02 0.07 0.07 93 1014.0
20260509134546 42 0 0.0 0.0 0.02 0.06 0.06 93 1013.8
20260509133041 41 0 0.0 0.0 0.02 0.05 0.05 92 1013.7
20260509131555 41 0 0.0 0.0 0.03 0.05 0.05 93 1013.7
20260509130100 40 0 0.0 0.0 0.04 0.05 0.05 92 1013.5
20260509124549 40 0 0.0 0.0 0.04 0.04 0.04 91 1013.8
20260509123116 39 0 0.0 0.0 0.03 0.03 0.03 91 1013.9
20260509121542 39 0 0.0 0.0 0.02 0.02 0.02 90 1014.1
20260509120048 38 0 0.0 0.0 0.01 0.01 0.01 88 1014.2
20260509114621 37 0 0.0 0.0 0.00 0.00 0.00 87 1014.3
20260509113052 37 0 0.0 0.0 0.00 0.00 0.00 88 1014.4
20260509111545 36 0 0.0 0.0 0.00 0.00 0.00 90 1014.3
20260509110053 35 0 0.0 0.0 0.00 0.00 0.00 91 1014.4
20260509104541 34 0 0.0 0.0 0.00 0.00 0.00 91 1014.3
20260509103041 33 0 0.0 0.0 0.00 0.00 0.00 92 1014.1
20260509101553 33 0 0.0 0.0 0.00 0.00 0.00 92 1014.3
20260509100046 32 0 0.0 0.0 0.00 0.00 0.00 92 1014.4
20260509094546 32 0 0.0 0.0 0.00 0.00 0.00 92 1014.1
20260509093041 31 0 0.0 0.0 0.00 0.00 0.00 92 1013.9
20260509091544 31 0 0.0 0.0 0.00 0.00 0.00 92 1013.8
20260509090049 31 0 0.0 0.0 0.00 0.00 0.00 92 1013.6
20260509084552 30 0 0.0 0.0 0.00 0.00 0.00 92 1013.7
20260509083045 30 0 0.0 0.0 0.00 0.00 0.00 92 1013.7
20260509081548 30 0 0.0 0.0 0.00 0.00 0.00 92 1013.5
20260509080045 30 0 0.0 0.0 0.00 0.00 0.00 91 1013.6
20260509074543 30 0 0.0 0.0 0.00 0.00 0.00 91 1013.5
20260509073048 30 0 0.0 0.0 0.00 0.00 0.00 91 1013.2
20260509071551 31 0 0.0 0.0 0.00 0.00 0.00 91 1013.4
20260509070049 31 0 0.0 0.0 0.00 0.00 0.00 90 1013.3
20260509064553 31 0 0.0 0.0 0.00 0.00 0.00 90 1013.3
20260509063049 31 0 0.0 0.0 0.00 0.00 0.00 89 1013.3
20260509061601 32 0 0.0 0.0 0.00 0.00 0.00 89 1013.5
20260509060048 33 0 0.0 0.0 0.00 0.00 0.00 88 1013.6
20260509054606 33 0 0.0 0.0 0.00 0.00 0.00 88 1013.7
20260509053051 34 0 0.0 0.0 0.00 0.00 0.00 88 1013.8
20260509051544 33 0 0.0 0.0 0.00 0.00 0.00 87 1013.5
20260509050052 34 0 0.0 0.0 0.00 0.00 0.00 87 1013.3
20260509044548 35 0 0.0 0.0 0.00 0.00 0.00 87 1013.4
20260509043041 35 0 0.0 0.0 0.00 0.00 0.00 86 1013.2